Time,TemperatureF,DewpointF,PressureIn,WindDirection,WindDirectionDegrees,WindSpeedMPH,WindSpeedGustMPH,Humidity,HourlyPrecipIn,Conditions,Clouds,dailyrainin,SoftwareType,DateUTC
2013-04-21 00:01:00,29.0,21.0,-100.00,SSE,165,1.0,4.0,70,-99.99,,,-99.99,,2013-04-21 06:01:00,
2013-04-21 00:12:00,29.0,22.0,-100.00,SSW,210,2.0,7.0,72,-99.99,,,-99.99,,2013-04-21 06:12:00,
2013-04-21 00:21:00,30.0,22.0,-100.00,NNW,330,3.0,5.0,72,-99.99,,,-99.99,,2013-04-21 06:21:00,
2013-04-21 00:32:00,30.0,22.0,-100.00,NW,315,2.0,5.0,72,-99.99,,,-99.99,,2013-04-21 06:32:00,
2013-04-21 00:42:00,30.0,22.0,-100.00,SE,145,0.0,4.0,72,-99.99,,,-99.99,,2013-04-21 06:42:00,
2013-04-21 00:51:00,29.0,22.0,-100.00,SW,230,3.0,6.0,73,-99.99,,,-99.99,,2013-04-21 06:51:00,
2013-04-21 01:01:00,30.0,23.0,-100.00,WSW,245,2.0,6.0,74,-99.99,,,-99.99,,2013-04-21 07:01:00,
2013-04-21 01:11:00,29.0,23.0,-100.00,SSW,195,2.0,4.0,76,-99.99,,,-99.99,,2013-04-21 07:11:00,
2013-04-21 01:21:00,29.0,23.0,-100.00,SSW,200,4.0,7.0,79,-99.99,,,-99.99,,2013-04-21 07:21:00,
2013-04-21 01:31:00,29.0,22.0,-100.00,SW,235,11.0,17.0,75,-99.99,,,-99.99,,2013-04-21 07:31:00,
2013-04-21 01:41:00,30.0,21.0,-100.00,WSW,240,5.0,11.0,68,-99.99,,,-99.99,,2013-04-21 07:41:00,
2013-04-21 01:52:00,30.0,20.0,-100.00,WSW,240,6.0,12.0,67,-99.99,,,-99.99,,2013-04-21 07:52:00,
2013-04-21 02:01:00,31.0,20.0,-100.00,SW,230,5.0,11.0,65,-99.99,,,-99.99,,2013-04-21 08:01:00,
2013-04-21 02:12:00,31.0,21.0,-100.00,SW,235,3.0,8.0,66,-99.99,,,-99.99,,2013-04-21 08:12:00,
2013-04-21 02:21:00,31.0,21.0,-100.00,WSW,245,2.0,9.0,66,-99.99,,,-99.99,,2013-04-21 08:21:00,
2013-04-21 02:32:00,30.0,21.0,-100.00,SE,145,2.0,9.0,66,-99.99,,,-99.99,,2013-04-21 08:32:00,
2013-04-21 02:41:00,30.0,21.0,-100.00,SE,145,2.0,9.0,66,-99.99,,,-99.99,,2013-04-21 08:41:00,
2013-04-21 02:52:00,30.0,20.0,-100.00,NE,45,1.0,11.0,66,-99.99,,,-99.99,,2013-04-21 08:52:00,
2013-04-21 03:01:00,30.0,20.0,-100.00,WSW,240,4.0,9.0,65,-99.99,,,-99.99,,2013-04-21 09:01:00,
2013-04-21 03:11:00,30.0,20.0,-100.00,WNW,295,4.0,11.0,65,-99.99,,,-99.99,,2013-04-21 09:11:00,
2013-04-21 03:21:00,30.0,20.0,-100.00,North,5,4.0,14.0,64,-99.99,,,-99.99,,2013-04-21 09:21:00,
2013-04-21 03:32:00,30.0,19.0,-100.00,SW,235,6.0,9.0,63,-99.99,,,-99.99,,2013-04-21 09:32:00,
2013-04-21 03:43:00,30.0,19.0,-100.00,WNW,290,4.0,13.0,63,-99.99,,,-99.99,,2013-04-21 09:43:00,
2013-04-21 03:52:00,30.0,19.0,-100.00,West,275,3.0,11.0,63,-99.99,,,-99.99,,2013-04-21 09:52:00,
2013-04-21 04:02:00,30.0,19.0,-100.00,NNW,330,7.0,19.0,64,-99.99,,,-99.99,,2013-04-21 10:02:00,
2013-04-21 04:12:00,30.0,20.0,-100.00,NW,325,7.0,12.0,64,-99.99,,,-99.99,,2013-04-21 10:12:00,
2013-04-21 04:22:00,30.0,20.0,-100.00,NW,315,8.0,19.0,65,-99.99,,,-99.99,,2013-04-21 10:22:00,
2013-04-21 04:32:00,30.0,20.0,-100.00,West,270,7.0,16.0,66,-99.99,,,-99.99,,2013-04-21 10:32:00,
2013-04-21 04:42:00,30.0,20.0,-100.00,NW,305,10.0,19.0,66,-99.99,,,-99.99,,2013-04-21 10:42:00,
2013-04-21 04:52:00,29.0,20.0,-100.00,NW,325,9.0,21.0,68,-99.99,,,-99.99,,2013-04-21 10:52:00,
2013-04-21 05:02:00,29.0,21.0,-100.00,WNW,290,6.0,14.0,70,-99.99,,,-99.99,,2013-04-21 11:02:00,
2013-04-21 05:12:00,29.0,20.0,-100.00,SW,215,7.0,14.0,68,-99.99,,,-99.99,,2013-04-21 11:12:00,
2013-04-21 05:22:00,29.0,19.0,-100.00,SW,215,7.0,17.0,65,-99.99,,,-99.99,,2013-04-21 11:22:00,
2013-04-21 05:33:00,30.0,18.0,-100.00,WNW,285,7.0,19.0,61,-99.99,,,-99.99,,2013-04-21 11:33:00,
2013-04-21 05:42:00,29.0,18.0,-100.00,NW,310,6.0,16.0,62,-99.99,,,-99.99,,2013-04-21 11:42:00,
2013-04-21 05:52:00,29.0,18.0,-100.00,SW,235,7.0,18.0,60,-99.99,,,-99.99,,2013-04-21 11:52:00,
2013-04-21 06:02:00,29.0,18.0,-100.00,SW,215,5.0,14.0,62,-99.99,,,-99.99,,2013-04-21 12:02:00,
2013-04-21 06:12:00,29.0,18.0,-100.00,WNW,295,7.0,17.0,61,-99.99,,,-99.99,,2013-04-21 12:12:00,
2013-04-21 06:22:00,30.0,18.0,-100.00,West,280,6.0,22.0,60,-99.99,,,-99.99,,2013-04-21 12:22:00,
2013-04-21 06:32:00,29.0,18.0,-100.00,West,280,6.0,17.0,62,-99.99,,,-99.99,,2013-04-21 12:32:00,
2013-04-21 06:42:00,29.0,18.0,-100.00,NW,310,9.0,17.0,64,-99.99,,,-99.99,,2013-04-21 12:42:00,
2013-04-21 06:52:00,29.0,18.0,-100.00,NW,325,8.0,18.0,63,-99.99,,,-99.99,,2013-04-21 12:52:00,
2013-04-21 07:01:00,29.0,18.0,-100.00,West,280,7.0,19.0,62,-99.99,,,-99.99,,2013-04-21 13:01:00,
2013-04-21 07:11:00,29.0,18.0,-100.00,NW,310,9.0,16.0,60,-99.99,,,-99.99,,2013-04-21 13:11:00,
2013-04-21 07:21:00,29.0,18.0,-100.00,SW,225,4.0,17.0,60,-99.99,,,-99.99,,2013-04-21 13:21:00,
2013-04-21 07:32:00,30.0,18.0,-100.00,WNW,295,7.0,13.0,60,-99.99,,,-99.99,,2013-04-21 13:32:00,
2013-04-21 07:42:00,30.0,17.0,-100.00,SW,215,6.0,16.0,58,-99.99,,,-99.99,,2013-04-21 13:42:00,
2013-04-21 07:52:00,30.0,17.0,-100.00,West,270,6.0,13.0,58,-99.99,,,-99.99,,2013-04-21 13:52:00,
2013-04-21 08:01:00,30.0,17.0,-100.00,West,275,8.0,16.0,56,-99.99,,,-99.99,,2013-04-21 14:01:00,
2013-04-21 08:11:00,31.0,17.0,-100.00,NW,310,11.0,21.0,55,-99.99,,,-99.99,,2013-04-21 14:11:00,
2013-04-21 08:21:00,31.0,17.0,-100.00,NW,320,9.0,19.0,57,-99.99,,,-99.99,,2013-04-21 14:21:00,
2013-04-21 08:32:00,31.0,18.0,-100.00,WNW,285,7.0,17.0,57,-99.99,,,-99.99,,2013-04-21 14:32:00,
2013-04-21 08:42:00,31.0,18.0,-100.00,NW,305,11.0,19.0,56,-99.99,,,-99.99,,2013-04-21 14:42:00,
2013-04-21 08:52:00,32.0,18.0,-100.00,NW,320,10.0,19.0,54,-99.99,,,-99.99,,2013-04-21 14:52:00,
2013-04-21 09:02:00,32.0,17.0,-100.00,WNW,290,7.0,17.0,54,-99.99,,,-99.99,,2013-04-21 15:02:00,
2013-04-21 09:11:00,32.0,17.0,-100.00,WNW,295,8.0,16.0,54,-99.99,,,-99.99,,2013-04-21 15:11:00,
2013-04-21 09:22:00,31.0,17.0,-100.00,NW,315,12.0,18.0,53,-99.99,,,-99.99,,2013-04-21 15:22:00,
2013-04-21 09:33:00,32.0,17.0,-100.00,NW,315,9.0,18.0,52,-99.99,,,-99.99,,2013-04-21 15:33:00,
2013-04-21 09:42:00,33.0,17.0,-100.00,NW,315,7.0,21.0,50,-99.99,,,-99.99,,2013-04-21 15:42:00,
2013-04-21 09:53:00,33.0,16.0,-100.00,WNW,290,9.0,14.0,49,-99.99,,,-99.99,,2013-04-21 15:53:00,
2013-04-21 10:03:00,34.0,16.0,-100.00,WNW,285,4.0,14.0,48,-99.99,,,-99.99,,2013-04-21 16:03:00,
2013-04-21 10:12:00,35.0,18.0,-100.00,North,0,6.0,14.0,48,-99.99,,,-99.99,,2013-04-21 16:12:00,
2013-04-21 10:22:00,35.0,18.0,-100.00,North,0,7.0,16.0,47,-99.99,,,-99.99,,2013-04-21 16:22:00,
2013-04-21 10:32:00,35.0,17.0,-100.00,NNE,15,6.0,12.0,48,-99.99,,,-99.99,,2013-04-21 16:32:00,
2013-04-21 10:42:00,35.0,17.0,-100.00,NNW,340,5.0,13.0,47,-99.99,,,-99.99,,2013-04-21 16:42:00,
2013-04-21 10:52:00,34.0,17.0,-100.00,NW,325,9.0,16.0,49,-99.99,,,-99.99,,2013-04-21 16:52:00,
2013-04-21 11:02:00,35.0,18.0,-100.00,WNW,300,10.0,17.0,49,-99.99,,,-99.99,,2013-04-21 17:02:00,
2013-04-21 11:12:00,36.0,18.0,-100.00,WNW,290,9.0,17.0,48,-99.99,,,-99.99,,2013-04-21 17:12:00,
2013-04-21 11:22:00,35.0,18.0,-100.00,NW,305,13.0,19.0,48,-99.99,,,-99.99,,2013-04-21 17:22:00,
2013-04-21 11:32:00,36.0,18.0,-100.00,West,280,8.0,19.0,47,-99.99,,,-99.99,,2013-04-21 17:32:00,
2013-04-21 11:42:00,37.0,18.0,-100.00,SW,235,9.0,17.0,46,-99.99,,,-99.99,,2013-04-21 17:42:00,
2013-04-21 11:52:00,37.0,18.0,-100.00,WNW,300,7.0,18.0,45,-99.99,,,-99.99,,2013-04-21 17:52:00,
2013-04-21 12:02:00,39.0,19.0,-100.00,SW,215,7.0,18.0,44,-99.99,,,-99.99,,2013-04-21 18:02:00,
2013-04-21 12:11:00,40.0,19.0,-100.00,NW,320,6.0,16.0,43,-99.99,,,-99.99,,2013-04-21 18:11:00,
2013-04-21 12:22:00,40.0,19.0,-100.00,North,355,6.0,14.0,42,-99.99,,,-99.99,,2013-04-21 18:22:00,
2013-04-21 12:32:00,39.0,18.0,-100.00,West,265,7.0,19.0,42,-99.99,,,-99.99,,2013-04-21 18:32:00,
2013-04-21 12:42:00,39.0,18.0,-100.00,West,265,7.0,19.0,42,-99.99,,,-99.99,,2013-04-21 18:42:00,
2013-04-21 12:52:00,39.0,18.0,-100.00,West,265,7.0,19.0,42,-99.99,,,-99.99,,2013-04-21 18:52:00,
2013-04-21 13:02:00,42.0,19.0,-100.00,West,260,5.0,14.0,40,-99.99,,,-99.99,,2013-04-21 19:02:00,
2013-04-21 13:11:00,40.0,18.0,-100.00,West,270,6.0,15.0,40,-99.99,,,-99.99,,2013-04-21 19:11:00,
2013-04-21 13:21:00,40.0,18.0,-100.00,NW,305,7.0,17.0,40,-99.99,,,-99.99,,2013-04-21 19:21:00,
2013-04-21 13:32:00,41.0,19.0,-100.00,WNW,300,6.0,17.0,40,-99.99,,,-99.99,,2013-04-21 19:32:00,
2013-04-21 13:42:00,41.0,19.0,-100.00,SSW,200,6.0,17.0,41,-99.99,,,-99.99,,2013-04-21 19:42:00,
2013-04-21 13:52:00,41.0,20.0,-100.00,WNW,295,4.0,16.0,41,-99.99,,,-99.99,,2013-04-21 19:52:00,
2013-04-21 14:01:00,41.0,19.0,-100.00,WNW,295,7.0,14.0,41,-99.99,,,-99.99,,2013-04-21 20:01:00,
2013-04-21 14:11:00,42.0,20.0,-100.00,NW,315,3.0,12.0,41,-99.99,,,-99.99,,2013-04-21 20:11:00,
2013-04-21 14:22:00,41.0,19.0,-100.00,WNW,295,4.0,16.0,40,-99.99,,,-99.99,,2013-04-21 20:22:00,
2013-04-21 14:31:00,41.0,19.0,-100.00,WNW,295,7.0,14.0,40,-99.99,,,-99.99,,2013-04-21 20:31:00,
2013-04-21 14:41:00,42.0,19.0,-100.00,SW,215,2.0,16.0,39,-99.99,,,-99.99,,2013-04-21 20:41:00,
2013-04-21 14:52:00,42.0,19.0,-100.00,NW,310,6.0,12.0,38,-99.99,,,-99.99,,2013-04-21 20:52:00,
2013-04-21 15:02:00,41.0,18.0,-100.00,NNW,330,6.0,19.0,39,-99.99,,,-99.99,,2013-04-21 21:02:00,
2013-04-21 15:12:00,41.0,19.0,-100.00,WNW,285,10.0,17.0,39,-99.99,,,-99.99,,2013-04-21 21:12:00,
2013-04-21 15:21:00,42.0,19.0,-100.00,WNW,290,6.0,11.0,38,-99.99,,,-99.99,,2013-04-21 21:21:00,
2013-04-21 15:33:00,42.0,19.0,-100.00,SSW,200,4.0,12.0,38,-99.99,,,-99.99,,2013-04-21 21:33:00,
2013-04-21 15:43:00,42.0,19.0,-100.00,West,280,6.0,14.0,37,-99.99,,,-99.99,,2013-04-21 21:43:00,
2013-04-21 15:53:00,42.0,18.0,-100.00,NNW,330,9.0,19.0,38,-99.99,,,-99.99,,2013-04-21 21:53:00,
2013-04-21 16:02:00,40.0,18.0,-100.00,WNW,285,6.0,17.0,40,-99.99,,,-99.99,,2013-04-21 22:02:00,
2013-04-21 16:12:00,40.0,19.0,-100.00,WNW,300,7.0,21.0,41,-99.99,,,-99.99,,2013-04-21 22:12:00,
2013-04-21 16:22:00,41.0,19.0,-100.00,North,350,4.0,11.0,40,-99.99,,,-99.99,,2013-04-21 22:22:00,
2013-04-21 16:33:00,40.0,19.0,-100.00,WNW,300,5.0,15.0,41,-99.99,,,-99.99,,2013-04-21 22:33:00,
2013-04-21 16:43:00,41.0,19.0,-100.00,SW,235,4.0,12.0,41,-99.99,,,-99.99,,2013-04-21 22:43:00,
2013-04-21 16:52:00,42.0,20.0,-100.00,West,260,4.0,10.0,40,-99.99,,,-99.99,,2013-04-21 22:52:00,
2013-04-21 17:02:00,40.0,19.0,-100.00,West,270,6.0,21.0,41,-99.99,,,-99.99,,2013-04-21 23:02:00,
2013-04-21 17:12:00,40.0,19.0,-100.00,NW,310,5.0,11.0,41,-99.99,,,-99.99,,2013-04-21 23:12:00,
2013-04-21 17:22:00,40.0,19.0,-100.00,WSW,250,2.0,9.0,43,-99.99,,,-99.99,,2013-04-21 23:22:00,
2013-04-21 17:32:00,38.0,20.0,-100.00,SW,220,3.0,6.0,46,-99.99,,,-99.99,,2013-04-21 23:32:00,
2013-04-21 17:42:00,40.0,20.0,-100.00,North,355,2.0,6.0,44,-99.99,,,-99.99,,2013-04-21 23:42:00,
2013-04-21 17:52:00,39.0,21.0,-100.00,West,270,4.0,9.0,46,-99.99,,,-99.99,,2013-04-21 23:52:00,
2013-04-21 18:01:00,39.0,20.0,-100.00,West,280,2.0,10.0,47,-99.99,,,-99.99,,2013-04-22 00:01:00,
2013-04-21 18:11:00,39.0,20.0,-100.00,NNW,330,2.0,4.0,47,-99.99,,,-99.99,,2013-04-22 00:11:00,
2013-04-21 18:21:00,39.0,20.0,-100.00,WSW,245,2.0,6.0,46,-99.99,,,-99.99,,2013-04-22 00:21:00,
2013-04-21 18:32:00,39.0,20.0,-100.00,East,95,1.0,7.0,45,-99.99,,,-99.99,,2013-04-22 00:32:00,
2013-04-21 18:42:00,39.0,20.0,-100.00,NE,45,2.0,6.0,45,-99.99,,,-99.99,,2013-04-22 00:42:00,
2013-04-21 18:51:00,39.0,20.0,-100.00,East,95,0.0,4.0,45,-99.99,,,-99.99,,2013-04-22 00:51:00,
2013-04-21 19:01:00,39.0,19.0,-100.00,NNE,20,2.0,6.0,45,-99.99,,,-99.99,,2013-04-22 01:01:00,
2013-04-21 19:12:00,38.0,20.0,-100.00,ESE,115,0.0,3.0,47,-99.99,,,-99.99,,2013-04-22 01:12:00,
2013-04-21 19:21:00,37.0,19.0,-100.00,ENE,70,1.0,4.0,48,-99.99,,,-99.99,,2013-04-22 01:21:00,
2013-04-21 19:32:00,36.0,19.0,-100.00,NE,55,0.0,4.0,49,-99.99,,,-99.99,,2013-04-22 01:32:00,
2013-04-21 19:41:00,35.0,19.0,-100.00,North,10,2.0,4.0,50,-99.99,,,-99.99,,2013-04-22 01:41:00,
2013-04-21 19:52:00,35.0,19.0,-100.00,NNE,25,2.0,4.0,51,-99.99,,,-99.99,,2013-04-22 01:52:00,
2013-04-21 20:02:00,34.0,18.0,-100.00,SW,225,1.0,2.0,52,-99.99,,,-99.99,,2013-04-22 02:02:00,
2013-04-21 20:11:00,33.0,19.0,-100.00,ENE,60,0.0,4.0,55,-99.99,,,-99.99,,2013-04-22 02:11:00,
2013-04-21 20:21:00,32.0,19.0,-100.00,ENE,65,1.0,2.0,58,-99.99,,,-99.99,,2013-04-22 02:21:00,
2013-04-21 20:32:00,32.0,20.0,-100.00,ENE,60,2.0,3.0,59,-99.99,,,-99.99,,2013-04-22 02:32:00,
2013-04-21 20:42:00,32.0,20.0,-100.00,SSE,160,0.0,3.0,60,-99.99,,,-99.99,,2013-04-22 02:42:00,
2013-04-21 20:51:00,33.0,20.0,-100.00,NW,305,6.0,12.0,60,-99.99,,,-99.99,,2013-04-22 02:51:00,
2013-04-21 21:02:00,33.0,20.0,-100.00,South,170,0.0,4.0,59,-99.99,,,-99.99,,2013-04-22 03:02:00,
2013-04-21 21:11:00,32.0,20.0,-100.00,SE,130,1.0,1.0,61,-99.99,,,-99.99,,2013-04-22 03:11:00,
2013-04-21 21:22:00,31.0,20.0,-100.00,SW,225,3.0,5.0,63,-99.99,,,-99.99,,2013-04-22 03:22:00,
2013-04-21 21:33:00,31.0,21.0,-100.00,NE,45,1.0,4.0,64,-99.99,,,-99.99,,2013-04-22 03:33:00,
2013-04-21 21:42:00,31.0,21.0,-100.00,SSE,150,1.0,4.0,64,-99.99,,,-99.99,,2013-04-22 03:42:00,
2013-04-21 21:52:00,31.0,21.0,-100.00,SE,135,1.0,2.0,64,-99.99,,,-99.99,,2013-04-22 03:52:00,
2013-04-21 22:02:00,31.0,21.0,-100.00,SSE,155,1.0,2.0,65,-99.99,,,-99.99,,2013-04-22 04:02:00,
2013-04-21 22:12:00,30.0,20.0,-100.00,NE,55,0.0,2.0,65,-99.99,,,-99.99,,2013-04-22 04:12:00,
2013-04-21 22:23:00,30.0,20.0,-100.00,SW,225,1.0,6.0,66,-99.99,,,-99.99,,2013-04-22 04:23:00,
2013-04-21 22:32:00,30.0,20.0,-100.00,North,355,2.0,6.0,66,-99.99,,,-99.99,,2013-04-22 04:32:00,
2013-04-21 22:43:00,30.0,20.0,-100.00,South,170,1.0,4.0,66,-99.99,,,-99.99,,2013-04-22 04:43:00,
2013-04-21 22:52:00,31.0,20.0,-100.00,SW,230,2.0,6.0,64,-99.99,,,-99.99,,2013-04-22 04:52:00,
2013-04-21 23:02:00,30.0,20.0,-100.00,SW,220,2.0,4.0,65,-99.99,,,-99.99,,2013-04-22 05:02:00,
2013-04-21 23:12:00,30.0,20.0,-100.00,SSE,155,1.0,4.0,65,-99.99,,,-99.99,,2013-04-22 05:12:00,
2013-04-21 23:22:00,31.0,21.0,-100.00,SW,230,3.0,4.0,65,-99.99,,,-99.99,,2013-04-22 05:22:00,
2013-04-21 23:32:00,32.0,21.0,-100.00,SSW,195,2.0,6.0,64,-99.99,,,-99.99,,2013-04-22 05:32:00,
2013-04-21 23:42:00,33.0,22.0,-100.00,SW,235,6.0,9.0,65,-99.99,,,-99.99,,2013-04-22 05:42:00,
2013-04-21 23:52:00,32.0,24.0,-100.00,SSW,205,2.0,15.0,73,-99.99,,,-99.99,,2013-04-22 05:52:00,